Wind_Speed
11 11 12 12 13 13 14 14 15 15 15 15 16 16 16 17 18 19 20 21 21 21 22 22 22 22 23 23 23 23 23 24 24 24 24 23 22 23
12 13 13 14 14 15 15 15 15 15 16 17 17 17 17 18 19 20 21 22 21 21 22 22 22 22 23 23 23 23 23 22 23 23 23 23 23 23
13 14 15 15 15 16 16 16 16 16 16 17 17 18 19 19 20 21 21 21 21 21 21 21 22 22 22 23 22 22 22 23 23 23 24 24 24 25
15 15 16 16 16 16 17 17 17 17 17 17 17 18 18 19 20 21 21 21 21 21 21 21 21 21 22 22 22 22 22 23 23 23 23 24 25 26
16 16 16 16 16 17 17 17 17 17 17 18 18 19 19 19 20 20 20 20 20 21 21 22 21 21 21 22 22 22 21 22 22 23 23 23 24 24
17 17 17 17 17 17 17 17 18 18 18 18 18 19 20 20 20 20 20 20 20 20 21 21 21 21 21 22 22 21 22 22 23 24 24 25 25 25
18 18 19 18 18 18 19 19 19 19 19 19 19 19 19 19 19 20 20 20 21 21 20 20 21 21 21 22 22 23 23 23 24 25 25 25 25 25
20 19 20 20 20 20 20 20 20 20 20 20 19 19 19 19 19 20 19 20 20 20 20 20 20 20 21 21 21 22 23 23 24 25 25 25 26 26
21 21 22 22 22 21 22 22 22 22 22 21 21 20 20 20 20 20 20 20 20 20 20 20 20 19 20 20 21 21 22 22 23 24 25 26 26 26
22 22 23 23 23 23 23 23 23 24 23 23 23 22 22 22 22 22 22 21 21 21 21 20 20 20 20 20 21 22 23 23 24 25 26 26 27 28
24 24 24 25 24 24 24 25 25 25 25 25 25 25 24 24 24 24 23 23 23 22 22 22 22 22 21 21 22 23 24 25 26 27 27 28 29 29
26 26 26 25 25 25 26 25 25 25 26 26 27 26 26 25 25 25 25 24 23 23 23 23 24 24 23 23 23 24 25 26 27 27 28 29 29 29
27 27 26 26 26 26 26 26 26 26 26 27 27 27 26 26 26 25 25 25 24 24 24 24 24 25 25 24 24 25 25 26 27 28 28 29 29 29
28 27 27 27 26 26 26 26 26 26 27 27 27 27 27 27 26 26 26 26 26 25 25 25 25 25 25 24 25 26 26 26 27 27 28 28 28 29
29 27 27 27 26 26 27 27 27 27 27 27 26 26 27 27 27 26 27 27 26 26 26 26 26 26 26 26 26 27 27 27 27 27 27 27 27 27
29 28 28 28 28 28 28 28 28 28 28 27 27 27 27 28 28 28 27 28 27 27 27 27 27 27 27 27 27 26 26 26 27 27 26 27 27 27
30 30 29 29 28 28 28 29 29 29 28 28 28 28 28 28 28 29 29 29 28 28 28 28 28 28 27 27 26 26 26 27 27 27 27 27 27 27
30 30 30 30 29 29 29 29 29 29 29 29 30 29 29 29 29 29 30 29 28 28 28 28 28 28 28 27 27 27 26 26 27 27 27 28 28 28
30 30 31 30 29 29 29 30 30 30 30 30 30 31 30 29 29 29 29 29 29 29 29 29 29 29 29 28 28 28 27 27 27 27 27 28 28 28
31 31 30 29 29 29 29 30 30 30 30 30 30 30 29 29 29 29 30 30 30 30 30 30 30 30 29 28 28 28 28 27 28 28 27 27 27 28
29 29 29 29 29 29 29 30 30 29 29 29 28 29 30 30 30 29 30 30 30 30 30 30 30 30 29 29 28 28 28 28 28 27 27 27 27 27
28 28 28 29 29 30 30 30 29 29 28 28 28 28 29 30 30 30 30 30 30 31 31 31 30 30 30 30 29 29 28 28 28 28 28 28 28 27
28 28 28 29 29 29 29 29 28 28 28 28 28 29 29 30 31 31 31 31 31 32 32 32 32 31 31 30 30 29 29 29 29 29 28 28 27 27
Wind_Direction
301 298 296 294 291 291 290 288 282 277 275 275 275 276 277 278 278 278 277 276 276 272 271 271 270 269 268 266 266 266 265 263 261 261 263 264 266 269
303 300 298 297 295 293 292 290 289 284 279 276 275 276 278 278 278 279 279 278 276 273 273 272 272 270 269 267 267 267 265 265 264 264 265 264 267 269
305 303 300 297 296 294 292 291 289 286 284 281 281 280 280 281 280 280 282 279 277 276 275 273 271 270 269 267 266 266 266 265 266 266 264 265 267 269
302 302 301 297 295 294 290 289 288 285 283 281 281 284 285 283 284 284 284 282 278 278 278 277 273 270 268 267 266 266 266 265 265 265 265 266 267 269
302 301 299 296 294 293 292 289 288 287 284 284 283 283 282 284 285 285 285 284 282 280 278 277 275 271 269 268 267 267 267 266 266 266 268 269 270 271
301 298 296 295 293 293 291 289 289 288 288 288 287 286 284 284 284 283 283 284 284 283 281 278 275 272 270 269 267 268 268 268 267 267 269 270 271 272
301 297 295 294 292 292 291 289 288 288 287 287 288 289 287 287 285 283 282 283 283 284 282 280 276 273 270 268 267 268 268 268 269 270 271 272 273 273
300 296 294 294 293 291 291 290 290 288 286 285 285 288 289 288 286 285 284 284 283 282 282 280 277 275 274 272 270 270 271 271 271 272 273 275 276 276
298 295 293 292 292 291 291 289 288 288 286 285 286 287 286 287 286 286 285 285 283 284 283 282 280 277 275 274 274 275 275 275 276 276 276 277 278 279
295 296 294 291 291 290 290 289 288 286 285 284 285 285 285 285 285 284 283 282 282 281 281 282 281 278 278 278 278 278 279 280 280 280 280 281 281 282
294 294 293 293 291 290 289 288 286 285 283 282 283 283 283 283 283 282 281 280 280 279 279 279 280 280 279 279 280 281 280 280 280 281 283 283 283 283
293 292 291 292 292 290 289 287 285 285 284 283 283 282 280 280 280 280 280 279 278 277 277 277 278 279 280 281 281 282 282 283 282 281 282 282 282 282
292 291 290 290 290 289 289 288 287 286 284 284 284 282 280 279 278 278 279 278 277 276 276 276 276 278 279 280 281 283 284 284 284 283 283 283 283 282
290 290 289 288 288 288 288 288 288 287 285 284 283 282 280 278 277 277 278 278 276 275 275 276 277 278 279 280 281 283 284 285 284 284 284 284 284 283
290 290 290 288 288 288 288 288 288 287 286 285 284 282 280 278 277 277 277 276 275 275 275 276 277 278 279 280 281 282 282 283 284 286 286 286 285 284
289 289 289 288 286 288 288 288 289 288 286 285 284 283 280 278 276 276 276 276 275 274 275 277 278 280 280 280 281 282 283 284 285 285 285 285 286 286
288 288 288 287 286 286 287 286 286 286 286 285 283 282 282 279 277 275 275 275 274 274 275 277 278 279 279 279 280 281 281 283 284 284 284 285 286 287
290 290 288 288 288 287 286 286 285 285 285 284 283 282 280 278 276 275 274 274 273 274 275 276 277 278 278 278 279 281 281 282 284 283 284 285 286 287
290 291 289 287 288 288 286 285 285 285 285 284 281 280 279 277 275 275 274 273 273 274 275 274 275 276 277 277 279 280 282 282 283 284 285 286 287 288
290 290 290 290 290 289 286 286 286 285 284 283 280 278 276 275 275 274 273 273 273 274 274 274 274 274 275 276 278 279 281 282 283 284 285 287 288 289
291 291 291 291 290 288 286 285 285 285 284 283 281 278 276 275 275 274 274 273 272 272 273 273 273 274 275 276 277 279 280 281 283 283 284 286 287 288
292 291 292 292 290 288 286 285 284 284 283 282 282 280 278 277 275 276 275 274 272 272 272 273 274 274 274 275 276 277 278 280 282 283 283 283 285 287
294 292 292 292 291 290 288 286 285 284 283 283 282 280 278 277 276 276 276 275 273 272 272 273 273 273 272 273 274 275 276 278 280 282 283 283 284 286
Height
5860 5859 5858 5856 5855 5854 5853 5852 5851 5850 5849 5848 5847 5846 5845 5844 5842 5841 5840 5838 5837 5836 5835 5834 5834 5833 5833 5832 5832 5831 5831 5831 5830 5830 5831 5830 5831 5830
5857 5855 5854 5853 5851 5849 5848 5847 5846 5845 5844 5843 5842 5841 5840 5839 5837 5835 5834 5832 5831 5830 5829 5828 5827 5827 5826 5826 5825 5825 5825 5824 5824 5824 5824 5824 5824 5824
5853 5851 5850 5848 5847 5845 5844 5842 5841 5840 5839 5838 5836 5835 5834 5833 5831 5829 5828 5826 5825 5824 5822 5821 5821 5820 5820 5819 5819 5818 5818 5818 5818 5818 5818 5818 5817 5817
5849 5847 5845 5844 5842 5841 5839 5838 5836 5835 5834 5832 5831 5830 5828 5827 5825 5823 5821 5820 5818 5817 5816 5815 5814 5813 5813 5813 5812 5812 5811 5811 5811 5811 5811 5811 5811 5810
5844 5842 5841 5839 5837 5836 5834 5833 5831 5830 5828 5827 5826 5824 5822 5821 5819 5817 5816 5814 5812 5811 5810 5809 5808 5807 5807 5806 5806 5806 5805 5805 5805 5804 5804 5804 5803 5803
5839 5837 5836 5834 5832 5831 5829 5827 5826 5824 5823 5821 5820 5818 5816 5815 5813 5811 5810 5808 5806 5805 5803 5802 5801 5801 5800 5800 5800 5799 5799 5798 5798 5797 5797 5797 5796 5795
5834 5832 5830 5829 5827 5825 5824 5822 5820 5819 5817 5816 5814 5812 5810 5809 5807 5805 5803 5802 5800 5798 5797 5796 5795 5794 5794 5793 5793 5792 5792 5791 5791 5790 5790 5789 5788 5788
5829 5827 5825 5823 5821 5820 5818 5816 5814 5813 5811 5810 5808 5806 5805 5803 5801 5799 5797 5796 5794 5792 5791 5790 5789 5788 5787 5786 5786 5785 5785 5784 5784 5783 5782 5782 5781 5780
5823 5821 5819 5817 5815 5813 5812 5810 5808 5806 5805 5804 5802 5800 5798 5797 5795 5793 5791 5790 5788 5786 5785 5784 5782 5781 5781 5780 5779 5778 5778 5777 5776 5775 5774 5774 5773 5772
5817 5815 5813 5811 5808 5807 5805 5803 5801 5800 5798 5796 5795 5793 5791 5790 5788 5786 5785 5783 5782 5781 5779 5778 5776 5775 5774 5773 5772 5772 5771 5770 5769 5768 5767 5766 5764 5763
5811 5808 5806 5804 5801 5799 5798 5796 5794 5792 5790 5789 5787 5785 5784 5782 5781 5779 5778 5776 5775 5774 5773 5772 5770 5769 5768 5767 5766 5765 5764 5763 5761 5760 5759 5757 5756 5755
5803 5801 5798 5796 5794 5792 5790 5788 5786 5784 5782 5780 5779 5777 5775 5774 5773 5771 5770 5769 5768 5767 5766 5765 5763 5762 5761 5760 5759 5757 5756 5755 5754 5752 5751 5749 5747 5746
5795 5793 5790 5789 5786 5784 5782 5780 5778 5776 5774 5772 5770 5769 5767 5766 5764 5763 5762 5761 5760 5759 5758 5757 5756 5755 5753 5752 5751 5750 5748 5747 5745 5744 5742 5741 5739 5738
5787 5784 5782 5780 5778 5776 5774 5772 5770 5767 5765 5764 5762 5760 5759 5757 5756 5755 5754 5753 5752 5751 5750 5749 5748 5747 5746 5745 5744 5742 5740 5739 5737 5735 5734 5732 5730 5728
5779 5776 5774 5772 5769 5768 5765 5763 5761 5759 5757 5755 5754 5752 5751 5749 5748 5747 5746 5745 5744 5743 5742 5741 5740 5739 5738 5737 5736 5734 5732 5730 5729 5727 5725 5723 5722 5720
5770 5767 5765 5763 5761 5759 5757 5754 5752 5750 5748 5746 5745 5744 5742 5741 5740 5738 5737 5736 5736 5735 5734 5733 5732 5731 5730 5729 5727 5726 5724 5722 5721 5719 5717 5715 5713 5712
5760 5758 5756 5754 5752 5750 5747 5745 5743 5741 5739 5737 5736 5734 5733 5732 5730 5729 5729 5728 5727 5726 5725 5724 5723 5723 5722 5720 5719 5718 5716 5714 5713 5711 5709 5708 5705 5704
5751 5749 5747 5745 5742 5740 5738 5736 5733 5731 5729 5727 5726 5725 5723 5722 5721 5720 5719 5719 5718 5717 5716 5716 5714 5714 5713 5712 5711 5709 5708 5706 5705 5703 5701 5699 5698 5695
5741 5739 5737 5735 5732 5730 5728 5726 5724 5721 5719 5717 5716 5714 5713 5712 5711 5710 5710 5709 5708 5708 5707 5706 5705 5704 5704 5703 5702 5701 5699 5698 5696 5695 5693 5691 5689 5687
5732 5729 5727 5725 5722 5720 5718 5716 5714 5712 5709 5707 5706 5704 5703 5702 5701 5701 5700 5699 5699 5699 5698 5697 5696 5695 5695 5694 5693 5692 5690 5689 5688 5686 5685 5683 5681 5679
5722 5720 5718 5715 5713 5710 5708 5706 5704 5702 5700 5698 5696 5695 5693 5692 5691 5691 5690 5690 5689 5689 5688 5688 5687 5686 5685 5685 5684 5683 5682 5680 5679 5678 5677 5675 5673 5670
5713 5711 5708 5705 5703 5701 5698 5696 5694 5692 5690 5688 5687 5685 5684 5683 5682 5681 5680 5680 5679 5679 5678 5678 5677 5676 5676 5675 5675 5674 5672 5671 5670 5669 5668 5666 5664 5662
5704 5701 5699 5696 5694 5691 5689 5686 5684 5682 5681 5679 5677 5676 5674 5673 5672 5671 5670 5670 5669 5668 5668 5667 5667 5666 5665 5665 5665 5664 5663 5662 5661 5660 5659 5657 5655 5654